Regional Weather Roundup
Issued by NWS

Home | Current Version | Previous Version | Graphics & Text | Print | Product List | Glossary On
Versions: 1 2 3 4 5 6 7 8 9 10 11 12 13 14 15 16 17 18 19 20 21 22 23 24 25 26 27 28 29 30 31 32 33 34 35 36 37 38 39 40 41 42 43 44 45 46 47 48 49 50
000
ASUS43 KBIS 301059
RWRND

NORTH DAKOTA REGIONAL WEATHER ROUNDUP
NATIONAL WEATHER SERVICE BISMARCK ND
600 AM CDT TUE SEP 30 2014

NOTE: "FAIR" INDICATES FEW OR NO CLOUDS BELOW 12,000 FEET WITH NO
SIGNIFICANT WEATHER AND/OR OBSTRUCTIONS TO VISIBILITY.


NDZ001>003-009>011-017-301200-
NORTHWEST NORTH DAKOTA

CITY           SKY/WX    TMP DP  RH WIND       PRES   REMARKS
WILLISTON      RAIN      53  51  93 SE5       29.75F
MINOT          CLOUDY    50  47  89 SE14G21   29.80F
MINOT AFB      CLOUDY    50  50  99 E13       29.79F
$$

NDZ018>021-031>035-040>046-301200-
SOUTHWEST NORTH DAKOTA

CITY           SKY/WX    TMP DP  RH WIND       PRES   REMARKS
BISMARCK       CLOUDY    54  50  86 E14       29.77F
GARRISON         N/A     52  50  93 SE10      29.78F
HETTINGER ARPT CLOUDY    52  51  97 E13       29.68F
$$

NDZ004>008-012>016-024-026-027-054-301200-
NORTHEAST NORTH DAKOTA

CITY           SKY/WX    TMP DP  RH WIND       PRES   REMARKS
GRAND FORKS    PTCLDY    43  41  93 SE7       29.98F
DEVILS LAKE    CLOUDY    48  39  71 SE18      29.89F
$$

NDZ022-023-025-028>030-036>039-047>053-301200-
SOUTHEAST NORTH DAKOTA

CITY           SKY/WX    TMP DP  RH WIND       PRES   REMARKS
FARGO          CLEAR     45  41  86 SE12      29.97F
$$




USA.gov is the U.S. government's official web portal to all federal, state and local government web resources and services.